Regional Weather Roundup
Issued by NWS

Home | Current Version | Previous Version | Graphics & Text | Print | Product List | Glossary On
Versions: 1 2 3 4 5 6 7 8 9 10 11 12 13 14 15 16 17 18 19 20 21 22 23 24 25 26 27 28 29 30 31 32 33 34 35 36 37 38 39 40 41 42 43 44 45 46 47 48 49 50
000
ASUS43 KMKX 020811
RWRWI

WISCONSIN REGIONAL WEATHER ROUNDUP
NATIONAL WEATHER SERVICE MILWAUKEE/SULLIVAN WI
300 AM CDT SUN AUG 02 2015

NOTE: "FAIR" INDICATES FEW OR NO CLOUDS BELOW 12,000 FEET WITH NO
SIGNIFICANT WEATHER AND/OR OBSTRUCTIONS TO VISIBILITY.

WIZ001-002-006>008-014>016-023>028-020900-
NORTHWEST WISCONSIN

CITY           SKY/WX    TMP DP  RH WIND       PRES   REMARKS
SUPERIOR ARPT  MOCLDY    64  60  87 W3        29.64F
ASHLAND        PTCLDY    60  59  96 SW3       29.66F
HAYWARD        PTCLDY    68  64  87 S6        29.71F
SIREN          CLEAR     72  64  76 SW9       29.69F
CUMBERLAND     PTCLDY    66  63  88 SW6       29.72F
RICE LAKE      PTCLDY    66  63  88 CALM      29.74S
CHETEK         PTCLDY    69  65  89 MISG      29.73F
LADYSMITH      CLEAR     68  64  85 SW7       29.75S
EAU CLAIRE     MOCLDY    71  66  84 SW7       29.73F
MENOMONIE      PTCLDY    71  66  83 SW7       29.73F
NEW RICHMOND   CLEAR     70  65  84 S6        29.72F
OSCEOLA        CLEAR     72  64  77 SW6       29.74S
$$

WIZ003>005-009-010-017-018-020900-
NORTH CENTRAL WISCONSIN

CITY           SKY/WX    TMP DP  RH WIND       PRES   REMARKS
MANITOWISH WTR CLEAR     59  59 100 S3        29.72F
ARBOR VITAE    CLEAR     62  58  87 S3        29.74S
WOODRUFF       CLEAR     62  58  87 S3        29.74S
RHINELANDER    PTCLDY    67  59  75 S9        29.76F
EAGLE RIVER    PTCLDY    60  54  80 CALM      29.74S
LAND O LAKES   CLEAR     53  52  98 CALM      29.74F
PHILLIPS       CLEAR     63  61  93 S3        29.73F
TOMAHAWK       MOCLDY    64  58  82 CALM      29.76F
MEDFORD        MOCLDY    67  64  91 S10       29.76F
MERRILL        NOT AVBL
$$

WIZ029-030-035-036-043>047-020900-
CENTRAL WISCONSIN

CITY           SKY/WX    TMP DP  RH WIND       PRES   REMARKS
WAUSAU         CLOUDY    66  63  90 SE3       29.76F
MOSINEE        CLOUDY    64  63  94 CALM      29.79S
MARSHFIELD     LGT RAIN  68  62  81 SW8       29.77F
STEVENS POINT  CLOUDY    67  61  83 SW7       29.78F
WAUPACA        CLOUDY    66  61  85 CALM      29.78F
WAUTOMA        CLOUDY    61  59  93 CALM      29.79F
WISC RAPIDS    CLOUDY    69  63  81 SW6       29.80F
CAMP DOUGLAS   PTCLDY    72  72 100 SW8       29.78F
$$

WIZ011>013-019>022-031-037>040-048>050-020900-
NORTHEAST WISCONSIN

CITY           SKY/WX    TMP DP  RH WIND       PRES   REMARKS
ANTIGO         HVY RAIN  63  61  93 S10       29.78F
SHAWANO        CLOUDY    67  58  72 CALM      29.77S THUNDER
OCONTO         MOCLDY    62  57  84 CALM      29.75F
STURGEON BAY   PTCLDY    64  52  63 S5        29.78F
GREEN BAY      CLOUDY    65  60  84 CALM      29.78S
MANITOWOC      PTCLDY    68  59  73 MISG      29.79F
APPLETON       MOCLDY    70  59  68 SW10      29.80S
CLINTONVILLE   CLOUDY    68  59  73 SW5       29.77F
OSHKOSH        PTCLDY    70  61  73 SW7       29.78F
$$

WIZ032>034-041-042-053>061-020900-
SOUTHWEST WISCONSIN

CITY           SKY/WX    TMP DP  RH WIND       PRES   REMARKS
LA CROSSE      MOCLDY    75  69  81 SE5       29.77F
SPARTA         PTCLDY    71  65  82 CALM      29.79F
VIROQUA        CLEAR     72  69  90 SW8       29.82S
BOSCOBEL       CLEAR     73  68  84 SW7       29.80F
PRAIRIE DU CHI CLEAR     73  67  80 CALM      29.80F
PLATTEVILLE    CLEAR     69  68  96 SW8       29.85F
$$

WIZ056-057-062-063-064-067-068-020900-
SOUTH CENTRAL WISCONSIN

CITY           SKY/WX    TMP DP  RH WIND       PRES   REMARKS
REEDSBURG      MOCLDY    74  68  81 SW13G20   29.79F
BARABOO/DELLS  MOCLDY    73  65  78 SW10      29.80F
LONE ROCK      CLEAR     66  63  90 E3        29.81F
MINERAL POINT  CLEAR     72  68  88 S6        29.85F
MADISON        PTCLDY    76  68  76 VRB7      29.82F
MIDDLETON      PTCLDY    75  67  76 W12G21    29.83S
WATERTOWN      PTCLDY    68  68 100 SW3       29.84S
MONROE         PTCLDY    70  64  83 SW10      29.85F
JANESVILLE     PTCLDY    70  68  94 SW5       29.85F
$$

WIZ051-052-058>065-066-070>072-020900-
SOUTHEAST WISCONSIN

CITY           SKY/WX    TMP DP  RH WIND       PRES   REMARKS
MILWAUKEE      PTCLDY    72  66  81 W8        29.84F
WAUKESHA       CLEAR     68  64  88 SW5       29.86S
MILWAUKEE/TIMM CLEAR     68  63  83 SW5       29.84S
RACINE         CLEAR     70  65  84 SW6       29.86F
BURLINGTON     CLEAR     66  64  91 CALM      29.86S
KENOSHA        CLEAR     70  65  84 W12       29.86S
FOND DU LAC    PTCLDY    69  62  78 SW7       29.80F
SHEBOYGAN      CLEAR     65  61  87 SW6       29.80F
WEST BEND      CLEAR     70  63  78 SW8       29.82F
JUNEAU         CLEAR     66  64  92 S6        29.84F
$$

LSZ147-162-020900-
LAKE SUPERIOR

STATION/POSITION TIME  TEMP    WIND        PRES    WAVE
                       AIR SEA DIR/SP/G            HT/PER
                 (UTC) (F)     (DEG/KT/KT) (MB)    (FT/S)
W MID LAKE BUOY  0750   61 55  220/ 12/ 12 1003.4S   1/ 3
DEVILS ISLAND    0800   68     240/ 12/ 13 1003.3F
PORT WING        0700   66      CALM  /  2 1004.7F
SAXON HARBOR     0740   69                 1003.7F
$$

LMZ867-665-643>646-020900-
LAKE MICHIGAN

STATION/POSITION TIME  TEMP    WIND        PRES    WAVE
                       AIR SEA DIR/SP/G            HT/PER
                 (UTC) (F)     (DEG/KT/KT) (MB)    (FT/S)
CHAMBERS ISLAND  0700   69     190/  4/  8 1007.8F
S GREEN BAY BUOY 0800   71 69  190/ 12/ 14 1008.9F
N MID LAKE BUOY  0750   70 69  220/ 16/ 17 1006.6F   2/ 4
NORTHPORT PIER   0700   66     190/  2/  4 1007.8F
SISTER BAY       0645   69     190/  6/  8   N/A
ALGOMA LAKESHORE 0742          220/  5/  5   N/A
KEWAUNEE LAKESHO 0700   64      30/  2/  2 1008.1F
SHEBOYGAN LAKESH 0800   71     240/ 11/ 12 1008.9F
PORT WASHINGTON  0700   72     260/  6/ 11 1010.5
ATWATER BUOY     0800   71 60  230/ 12/ 16 1011.3F
MILWAUKEE LAKESH 0700   73     240/ 10/ 12   N/A
KENOSHA   LAKESH 0800   74     250/  8/ 14 1010.5S
$$

TC  - TEMPERATURE IN CELSIUS
VSB - VISIBILITY IN STATUTE MILES
WCI - WIND CHILL INDEX
HX  - HEAT INDEX




USA.gov is the U.S. government's official web portal to all federal, state and local government web resources and services.